Погода в Востром

Россия / Вологодская область     60°32′16″N   44°55′43″E
темп.,
°C
ветер,
м/с
пор.,
м/с
влажн.,
%
обл.,
%
осадки,
мм/ч
давл.,
гПа
погр.,
м
29 января, сб
сб2900:00−11ю41191100 0.0 1010427
03:00−11ю4119188 0.1 1010424
06:00−11ю41191100 0.0 1010412
09:00−12ю41393100 0.1 1009377
12:00−9ю41292100 0.1 1009465
15:00−8ююв31093100 0.4 1008547
18:00−8ююв41093100 0.2 1007462
21:00−9ю399483 0.5 1006423
30 января, вс
вс3000:00−9ююв389570 0.1 1005280
03:00−12юв279872 0.2 1005160
06:00−13ююв389784 0.0 1004185
09:00−14ююв3109789 0.1 1003220
12:00−10ююв399297 0.0 1003350
15:00−9юв3794100 0.1 1004332
18:00−11юв399595 0.0 1004269
21:00−13юв399671 0.0 1005195
31 января, пн
пн3100:00−14юв299779 0.0 1005189
03:00−14юв399781 0.0 1005178
06:00−13юв3109691 0.0 1006212
09:00−13юв3109689 0.1 1006245
12:00−9юв3109498 0.0 1006352
15:00−8вюв41193100 0.1 1006434
18:00−9вюв41393100 0.0 1006419
21:00−9вюв41394100 0.1 1005450
1 февраля, вт
вт100:00−9вюв41393100 0.1 1004484
03:00−8вюв41193100 0.4 1002505
06:00−7вюв41093100 0.3 1001441
09:00−6вюв41194100 0.5 999469
12:00−4вюв41194100 0.1 998448
15:00−2вюв41295100 0.6 995602
18:00−2ю4109572 1.1 995597
21:00−4ююв4119289 1.1 995511
2 февраля, ср
ср200:00−5ююв41191100 0.1 996605
03:00−5ю4119299 0.1 997634
06:00−6ю4119296 0.1 998585
09:00−6ююз4109396 0.3 1001572
12:00−5ююз4991100 0.1 1003634
15:00−7ююз3891100 0.2 1005540
18:00−8ю3994100 0.1 1007475
21:00−8ююв3994100 0.4 1008485